{"data":{"norad_id":61591,"intl_designator":"2024-187T","name":"STARLINK-32409","alt_names":[],"object_type":"PAYLOAD","status":"ACTIVE","operator":null,"country":"US","launch_date":"2024-10-18","launch_site_code":"AFETR","launch_vehicle":null,"mission":null,"orbit_class":"UNKNOWN","rcs_meters":null,"size_class":null,"mass_kg":null,"dimensions":null,"purposes":["comms"],"wikipedia_slug":null,"has_3d_model":false,"image_url":null,"decayed_at":null,"tle_current":{"epoch":"2026-05-25T00:52:11.409888Z","epoch_age_seconds":71926,"freshness":"FRESH","line1":"1 61591U 24187T   26145.03624317 -.00000094  00000+0  84528-5 0  9993","line2":"2 61591  53.1607  55.4181 0000491  85.7317 274.3741 15.33548547 90984","mean_motion":15.33548547,"eccentricity":4.91e-5,"inclination_deg":53.1607,"raan_deg":55.4181,"arg_perigee_deg":85.7317,"mean_anomaly_deg":274.3741,"bstar":8.4528e-6,"rev_number":9098,"period_min":93.899863999545,"perigee_km":464.89909922234,"apogee_km":465.57111836342,"semimajor_km":6843.3721087929,"source":"CELESTRAK","updated_at":"2026-05-25T13:38:19.405448Z"}}}